N5FTL Weather Reports


time (UTC)temp
F
wind
direction
speed
knots
gust
knots
rain 1hr
in
rain 24hr
in
rain mn
in
humidity
%
barometer
mb
20260906221005 104 109 0.0 0.9 0.00 0.00 0.00 30 1003.9
20260906220505 105 109 0.0 1.7 0.00 0.00 0.00 30 1004.0
20260906220011 105 59 0.0 2.6 0.00 0.00 0.00 30 1004.0
20260906215510 105 96 0.0 2.6 0.00 0.00 0.00 30 1003.9
20260906215005 104 99 0.9 4.3 0.00 0.00 0.00 32 1004.0
20260906214505 105 105 0.0 4.3 0.00 0.00 0.00 31 1004.1
20260906214006 106 124 0.0 5.2 0.00 0.00 0.00 30 1004.2
20260906213006 107 136 1.7 5.2 0.00 0.00 0.00 30 1004.3
20260906212506 106 88 0.0 2.6 0.00 0.00 0.00 31 1004.4
20260906212005 104 146 0.0 2.6 0.00 0.00 0.00 33 1004.6
20260906211505 104 108 0.0 2.6 0.00 0.00 0.00 34 1004.7
20260906211007 103 115 0.9 1.7 0.00 0.00 0.00 33 1004.7
20260906210506 103 90 0.0 1.7 0.00 0.00 0.00 33 1004.9
20260906210006 102 95 0.0 0.0 0.00 0.00 0.00 35 1005.0
20260906205505 100 99 0.0 2.6 0.00 0.00 0.00 36 1005.1
20260906205006 99 104 0.0 2.6 0.00 0.00 0.00 35 1005.2
20260906204505 100 99 0.0 1.7 0.00 0.00 0.00 34 1005.2
20260906204006 101 139 0.0 1.7 0.00 0.00 0.00 34 1005.3
20260906203506 103 118 0.0 6.1 0.00 0.00 0.00 32 1005.3
20260906203006 103 108 0.0 6.1 0.00 0.00 0.00 32 1005.3
20260906202505 102 91 0.0 4.3 0.00 0.00 0.00 33 1005.3
20260906202006 102 107 0.0 4.3 0.00 0.00 0.00 34 1005.5
20260906201505 102 110 0.9 2.6 0.00 0.00 0.00 34 1005.5
20260906201006 103 105 0.0 2.6 0.00 0.00 0.00 33 1005.5
20260906200005 104 102 0.0 0.0 0.00 0.00 0.00 32 1005.5
20260906195505 104 99 0.0 0.0 0.00 0.00 0.00 33 1005.5
20260906195005 104 97 0.0 0.0 0.00 0.00 0.00 33 1005.6
20260906194506 104 100 0.0 1.7 0.00 0.00 0.00 33 1005.7
20260906194007 103 86 0.0 1.7 0.00 0.00 0.00 33 1005.7
20260906193507 103 130 0.0 8.7 0.00 0.00 0.00 34 1005.9
20260906193006 102 99 3.5 8.7 0.00 0.00 0.00 34 1006.0
20260906191505 102 104 0.9 5.2 0.00 0.00 0.00 34 1006.3
20260906191006 101 124 0.0 5.2 0.00 0.00 0.00 36 1006.4
20260906190505 100 126 0.0 4.3 0.00 0.00 0.00 37 1006.4
20260906185505 100 121 0.0 2.6 0.00 0.00 0.00 34 1006.3
20260906185006 101 115 0.0 4.3 0.00 0.00 0.00 35 1006.4
20260906184505 101 101 0.9 4.3 0.00 0.00 0.00 35 1006.5
20260906184005 101 105 0.0 5.2 0.00 0.00 0.00 36 1006.6
20260906182505 99 129 0.9 4.3 0.00 0.00 0.00 38 1006.9
20260906181505 98 171 0.0 7.0 0.00 0.00 0.00 39 1007.1
20260906181005 98 100 2.6 7.0 0.00 0.00 0.00 38 1007.1
20260906180505 98 219 0.0 5.2 0.00 0.00 0.00 37 1007.1
20260906180005 98 115 1.7 5.2 0.00 0.00 0.00 39 1007.5
20260906175505 98 108 0.0 2.6 0.00 0.00 0.00 38 1007.5
20260906175006 97 110 0.0 1.7 0.00 0.00 0.00 38 1007.4
20260906174505 97 111 0.0 5.2 0.00 0.00 0.00 40 1007.5
20260906174005 97 102 0.9 5.2 0.00 0.00 0.00 39 1007.4
20260906173505 97 106 0.0 5.2 0.00 0.00 0.00 39 1007.6
20260906173005 96 109 0.9 7.8 0.00 0.00 0.00 41 1007.5
20260906172505 96 134 0.9 7.8 0.00 0.00 0.00 41 1007.6
20260906172005 96 164 1.7 5.2 0.00 0.00 0.00 39 1007.6
20260906171506 96 100 0.9 6.1 0.00 0.00 0.00 41 1007.5
20260906171005 96 128 0.9 6.1 0.00 0.00 0.00 42 1007.7
20260906170507 96 122 2.6 6.1 0.00 0.00 0.00 42 1007.9
20260906170005 95 168 1.7 5.2 0.00 0.00 0.00 42 1008.0
20260906165505 95 99 0.0 6.1 0.00 0.00 0.00 45 1007.8
20260906165005 94 111 1.7 6.1 0.00 0.00 0.00 45 1007.8
20260906164504 94 108 1.7 4.3 0.00 0.00 0.00 45 1007.9
20260906164005 93 103 0.0 2.6 0.00 0.00 0.00 46 1007.9
20260906163505 93 100 0.9 2.6 0.00 0.00 0.00 47 1007.9
20260906163005 92 128 0.0 2.6 0.00 0.00 0.00 48 1007.9
20260906162504 92 114 0.0 4.3 0.00 0.00 0.00 47 1008.0
20260906162004 92 98 0.9 4.3 0.00 0.00 0.00 48 1008.0
20260906160505 90 122 0.0 2.6 0.00 0.00 0.00 50 1008.0
20260906160005 90 129 0.9 2.6 0.00 0.00 0.00 51 1008.0
20260906155505 89 126 0.0 2.6 0.00 0.00 0.00 52 1008.0
20260906155005 89 126 0.9 2.6 0.00 0.00 0.00 53 1007.9
20260906154505 88 121 0.0 1.7 0.00 0.00 0.00 56 1008.0
20260906154004 87 121 0.0 1.7 0.00 0.00 0.00 56 1008.0
20260906153505 87 121 0.0 2.6 0.00 0.00 0.00 57 1007.9
20260906153004 86 122 0.0 2.6 0.00 0.00 0.00 59 1007.8
20260906152505 85 133 0.0 1.7 0.00 0.00 0.00 60 1007.8
20260906152005 85 135 0.9 1.7 0.00 0.00 0.00 61 1007.7
20260906151504 85 135 0.0 0.0 0.00 0.00 0.00 61 1007.7
20260906151005 84 135 0.0 0.0 0.00 0.00 0.00 61 1007.7
20260906150505 84 135 0.0 0.0 0.00 0.00 0.00 62 1007.7
20260906150005 83 135 0.0 0.0 0.00 0.00 0.00 64 1007.8
20260906145504 83 135 0.0 0.0 0.00 0.00 0.00 65 1007.7
20260906145005 82 135 0.0 0.0 0.00 0.00 0.00 66 1007.7
20260906144505 82 135 0.0 0.0 0.00 0.00 0.00 66 1007.7
20260906144005 81 135 0.0 0.0 0.00 0.00 0.00 67 1007.8
20260906143504 81 135 0.0 0.0 0.00 0.00 0.00 68 1007.8
20260906143005 80 135 0.0 0.0 0.00 0.00 0.00 68 1007.8
20260906142505 80 135 0.0 0.0 0.00 0.00 0.00 69 1007.8
20260906142004 79 135 0.0 0.0 0.00 0.00 0.00 70 1007.8
20260906141505 79 135 0.0 0.0 0.00 0.00 0.00 71 1007.7
20260906141005 78 135 0.0 0.0 0.00 0.00 0.00 72 1007.7
20260906140504 78 135 0.0 0.0 0.00 0.00 0.00 73 1007.7
20260906140004 77 135 0.0 0.0 0.00 0.00 0.00 74 1007.7
20260906135504 76 135 0.0 0.0 0.00 0.00 0.00 75 1007.8
20260906135005 76 135 0.0 0.0 0.00 0.00 0.00 75 1007.8
20260906134004 75 135 0.0 0.0 0.00 0.00 0.00 76 1007.7
20260906133505 74 135 0.0 0.0 0.00 0.00 0.00 76 1007.8
20260906133005 74 135 0.0 0.0 0.00 0.00 0.00 76 1007.7
20260906132504 74 135 0.0 0.0 0.00 0.00 0.00 77 1007.8
20260906132005 73 135 0.0 0.0 0.00 0.00 0.00 77 1007.7
20260906131504 73 135 0.0 0.0 0.00 0.00 0.00 77 1007.7
20260906130505 73 135 0.0 0.0 0.00 0.00 0.00 78 1007.6
20260906130004 72 135 0.0 0.0 0.00 0.00 0.00 78 1007.7
20260906125511 72 135 0.0 0.0 0.00 0.00 0.00 77 1007.5
20260906125004 72 135 0.0 0.0 0.00 0.00 0.00 77 1007.3
20260906124504 72 135 0.0 0.0 0.00 0.00 0.00 77 1007.3
20260906124005 72 135 0.0 0.0 0.00 0.00 0.00 77 1007.2
20260906123504 72 135 0.0 0.0 0.00 0.00 0.00 76 1007.1
20260906123004 72 135 0.0 0.0 0.00 0.00 0.00 76 1007.1
20260906122504 72 135 0.0 0.0 0.00 0.00 0.00 76 1007.1
20260906121505 72 135 0.0 0.0 0.00 0.00 0.00 76 1006.8
20260906121008 72 135 0.0 0.0 0.00 0.00 0.00 75 1006.9
20260906120507 72 135 0.0 0.0 0.00 0.00 0.00 75 1006.9
20260906120007 73 135 0.0 0.0 0.00 0.00 0.00 75 1006.9
20260906115507 73 135 0.0 0.0 0.00 0.00 0.00 75 1006.8
20260906115008 73 135 0.0 0.0 0.00 0.00 0.00 74 1006.6
20260906114507 73 135 0.0 0.0 0.00 0.00 0.00 74 1006.6
20260906114007 73 135 0.0 0.0 0.00 0.00 0.00 75 1006.6
20260906113507 73 135 0.0 0.0 0.00 0.00 0.00 74 1006.7
20260906113007 73 135 0.0 0.0 0.00 0.00 0.00 74 1006.7
20260906112507 73 135 0.0 0.0 0.00 0.00 0.00 75 1006.7
20260906112007 73 135 0.0 0.0 0.00 0.00 0.00 74 1006.7
20260906111007 74 135 0.0 0.0 0.00 0.00 0.00 74 1006.6
20260906110507 74 135 0.0 0.0 0.00 0.00 0.00 74 1006.5
20260906110007 74 135 0.0 0.0 0.00 0.00 0.00 74 1006.5
20260906105507 74 135 0.0 0.0 0.00 0.00 0.00 73 1006.5
20260906104507 74 135 0.0 0.0 0.00 0.00 0.00 74 1006.5
20260906104008 74 135 0.0 0.0 0.00 0.00 0.00 74 1006.4
20260906103507 74 135 0.0 0.0 0.00 0.00 0.00 73 1006.4
20260906103007 74 135 0.0 0.0 0.00 0.00 0.00 73 1006.2
20260906102508 74 135 0.0 0.0 0.00 0.00 0.00 72 1006.2
20260906102007 74 135 0.0 0.0 0.00 0.00 0.00 72 1006.0
20260906101507 74 135 0.0 0.0 0.00 0.00 0.00 72 1006.0
20260906101007 74 135 0.0 0.0 0.00 0.00 0.00 72 1006.1
20260906100507 74 135 0.0 0.0 0.00 0.00 0.00 72 1006.1
20260906100007 75 135 0.0 0.0 0.00 0.00 0.00 72 1006.2
20260906095507 75 135 0.0 0.0 0.00 0.00 0.00 72 1006.1
20260906095007 75 135 0.0 0.0 0.00 0.00 0.00 72 1006.2
20260906094507 75 135 0.0 0.0 0.00 0.00 0.00 72 1006.1
20260906094008 75 135 0.0 0.0 0.00 0.00 0.00 72 1006.0
20260906093508 75 135 0.0 0.0 0.00 0.00 0.00 72 1005.7
20260906093010 75 135 0.0 0.0 0.00 0.00 0.00 71 1005.8
20260906092507 75 135 0.0 0.0 0.00 0.00 0.00 71 1005.8
20260906092008 75 135 0.0 0.0 0.00 0.00 0.00 70 1005.8
20260906091507 76 135 0.0 0.0 0.00 0.00 0.00 70 1005.7
20260906090507 76 135 0.0 0.0 0.00 0.00 0.00 69 1005.7
20260906085507 76 135 0.0 0.0 0.00 0.00 0.00 69 1005.6
20260906085007 76 135 0.0 0.0 0.00 0.00 0.00 68 1005.6
20260906084507 76 135 0.0 0.0 0.00 0.00 0.00 68 1005.8
20260906084007 76 135 0.0 0.0 0.00 0.00 0.00 67 1005.8
20260906083007 77 135 0.0 0.0 0.00 0.00 0.00 67 1005.9
20260906082507 77 135 0.0 0.0 0.00 0.00 0.00 66 1005.8
20260906082007 77 135 0.0 0.0 0.00 0.00 0.00 66 1005.8
20260906081506 77 135 0.0 0.0 0.00 0.00 0.00 66 1005.8
20260906081007 78 135 0.0 0.0 0.00 0.00 0.00 66 1005.9
20260906080507 78 135 0.0 0.0 0.00 0.00 0.00 66 1006.0
20260906080007 78 135 0.0 0.0 0.00 0.00 0.00 65 1006.1
20260906075507 78 135 0.0 0.0 0.00 0.00 0.00 65 1006.1
20260906075007 78 135 0.0 0.0 0.00 0.00 0.00 65 1006.0
20260906074507 78 135 0.0 0.0 0.00 0.00 0.00 65 1006.1
20260906074007 78 135 0.0 0.0 0.00 0.00 0.00 66 1006.1
20260906073507 79 135 0.0 0.0 0.00 0.00 0.00 66 1006.1
20260906072507 79 135 0.0 0.0 0.00 0.00 0.00 65 1006.1
20260906071507 80 135 0.0 0.0 0.00 0.00 0.00 64 1006.1
20260906071007 80 135 0.0 0.0 0.00 0.00 0.00 64 1006.1
20260906070006 80 135 0.0 0.0 0.00 0.00 0.00 63 1006.2
20260906065506 80 135 0.0 0.0 0.00 0.00 0.00 63 1006.3
20260906065007 80 135 0.0 0.0 0.00 0.00 0.00 63 1006.3
20260906064506 80 135 0.0 0.0 0.00 0.00 0.00 63 1006.4
20260906063507 80 135 0.0 0.0 0.00 0.00 0.00 62 1006.6
20260906063006 80 135 0.0 0.0 0.00 0.00 0.00 62 1006.8
20260906062507 81 135 0.0 0.0 0.00 0.00 0.00 61 1006.9
20260906062007 81 135 0.0 0.0 0.00 0.00 0.00 61 1006.9
20260906061507 81 135 0.0 0.0 0.00 0.00 0.00 61 1006.8
20260906060507 82 135 0.0 0.0 0.00 0.00 0.00 61 1006.6
20260906060007 82 135 0.0 0.0 0.00 0.00 0.00 61 1006.8
20260906055007 82 135 0.0 0.0 0.00 0.00 0.00 60 1006.8
20260906054506 82 135 0.0 0.0 0.00 0.00 0.00 59 1007.0
20260906054007 82 135 0.0 0.0 0.00 0.00 0.00 60 1006.9
20260906053506 83 135 0.0 0.0 0.00 0.00 0.00 59 1006.8
20260906053007 83 135 0.0 0.0 0.00 0.00 0.00 59 1006.8
20260906052506 83 135 0.0 0.0 0.00 0.00 0.00 58 1006.8
20260906052007 83 135 0.0 0.0 0.00 0.00 0.00 58 1006.8
20260906051507 83 135 0.0 0.0 0.00 0.00 0.00 58 1006.8
20260906051007 83 135 0.0 0.0 0.00 0.00 0.00 58 1006.9
20260906050508 84 135 0.0 2.6 0.00 0.00 0.00 58 1006.9
20260906050007 84 135 0.0 2.6 0.00 0.00 0.00 57 1006.9
20260906045006 84 136 0.0 0.0 0.00 0.00 0.00 57 1006.9
20260906044507 84 136 0.0 1.7 0.00 0.00 0.00 57 1006.8
20260906044007 84 136 0.0 1.7 0.00 0.00 0.00 57 1006.8
20260906043507 84 136 0.0 0.0 0.00 0.00 0.00 57 1006.8
20260906043007 84 136 0.0 1.7 0.00 0.00 0.00 57 1006.8
20260906042526 84 128 0.0 1.7 0.00 0.00 0.00 57 1006.8
20260906041512 84 118 0.0 0.0 0.00 0.00 0.00 56 1006.8
20260906041007 84 118 0.0 0.0 0.00 0.00 0.00 55 1006.8
20260906040506 84 119 0.0 0.0 0.00 0.00 0.00 55 1006.6
20260906040006 84 119 0.0 0.0 0.00 0.00 0.00 54 1006.6
20260906035507 85 119 0.0 0.0 0.00 0.00 0.00 55 1006.5
20260906035006 85 119 0.0 0.0 0.00 0.00 0.00 54 1006.4
20260906034507 85 119 0.0 0.0 0.00 0.00 0.00 54 1006.3
20260906033506 86 119 0.0 0.0 0.00 0.00 0.00 54 1006.2
20260906033007 86 119 0.0 1.7 0.00 0.00 0.00 53 1006.1
20260906032506 86 119 0.0 1.7 0.00 0.00 0.00 52 1006.0
20260906031506 87 119 0.0 0.0 0.00 0.00 0.00 51 1005.7
20260906030506 87 119 0.0 0.0 0.00 0.00 0.00 50 1005.5
20260906030006 88 119 0.0 0.0 0.00 0.00 0.00 49 1005.6
20260906025506 88 119 0.0 0.0 0.00 0.00 0.00 49 1005.4
20260906025006 88 119 0.0 0.0 0.00 0.00 0.00 49 1005.2
20260906024506 89 119 0.0 0.0 0.00 0.00 0.00 48 1005.2
20260906023506 89 119 0.0 0.9 0.00 0.00 0.00 48 1005.1
20260906023006 89 119 0.0 2.6 0.00 0.00 0.00 48 1005.0
20260906022506 90 119 0.0 2.6 0.00 0.00 0.00 47 1005.0
20260906022006 90 120 0.0 2.6 0.00 0.00 0.00 47 1004.9
20260906021506 90 118 0.9 1.7 0.00 0.00 0.00 47 1004.9
20260906021006 90 117 0.0 2.6 0.00 0.00 0.00 46 1004.7
20260906020506 91 117 0.0 4.3 0.00 0.00 0.00 46 1004.6
20260906020006 91 111 1.7 4.3 0.00 0.00 0.00 45 1004.5
20260906015506 91 113 1.7 4.3 0.00 0.00 0.00 45 1004.3
20260906015006 91 118 1.7 2.6 0.00 0.00 0.00 45 1004.3
20260906014006 92 134 0.9 2.6 0.00 0.00 0.00 44 1004.2
20260906013006 92 125 1.7 2.6 0.00 0.00 0.00 43 1004.1
20260906012506 93 131 1.7 2.6 0.00 0.00 0.00 43 1003.9
20260906012006 93 115 0.9 4.3 0.00 0.00 0.00 43 1003.9
20260906011506 94 98 0.9 4.3 0.00 0.00 0.00 42 1003.9
20260906010506 95 125 0.9 5.2 0.00 0.00 0.00 41 1003.8
20260906005506 96 101 1.7 7.8 0.00 0.00 0.00 39 1003.7
20260906005006 97 126 0.9 7.8 0.00 0.00 0.00 38 1003.8
20260906004006 99 122 1.7 5.2 0.00 0.00 0.00 36 1003.6
20260906003506 100 114 0.0 2.6 0.00 0.00 0.00 35 1003.6
20260906003006 102 120 1.7 2.6 0.00 0.00 0.00 34 1003.6
20260906002006 104 110 0.9 5.2 0.00 0.00 0.00 32 1003.6
20260906001506 105 136 0.9 6.1 0.00 0.00 0.00 32 1003.5
20260906000506 106 111 0.9 2.6 0.00 0.00 0.00 31 1003.4
20260906000005 107 110 0.0 2.6 0.00 0.00 0.00 31 1003.4
20260905235006 107 103 0.9 5.2 0.00 0.00 0.00 31 1003.3
20260905234506 107 108 2.6 5.2 0.00 0.00 0.00 30 1003.3
20260905233506 108 77 0.0 1.7 0.00 0.00 0.00 31 1003.2
20260905233008 107 98 0.0 2.6 0.00 0.00 0.00 31 1003.2
20260905232506 106 98 0.9 2.6 0.00 0.00 0.00 32 1003.2
20260905232005 105 109 0.0 2.6 0.00 0.00 0.00 32 1003.2
20260905231506 106 110 0.0 2.6 0.00 0.00 0.00 31 1003.3
20260905231005 107 101 0.0 1.7 0.00 0.00 0.00 30 1003.3
20260905230506 108 105 0.0 2.6 0.00 0.00 0.00 31 1003.3
20260905225505 108 100 0.9 2.6 0.00 0.00 0.00 31 1003.3
20260905225006 108 70 0.0 1.7 0.00 0.00 0.00 30 1003.2
20260905224006 107 103 0.0 2.6 0.00 0.00 0.00 32 1003.3
20260905223505 106 106 0.9 1.7 0.00 0.00 0.00 33 1003.4
20260905222506 104 104 0.9 2.6 0.00 0.00 0.00 34 1003.5
20260905222006 105 81 0.0 1.7 0.00 0.00 0.00 32 1003.6